Location: San Pelegr�n
(42.1868°N, 0.0079°E)
Time: 03:09:23
(UTC+00:00)

Cosmos 2218 Rocket - Pass Details

Date: 24 January 2020
Orbit: 956 x 1006 km, 82.9° (Epoch: 18 February)

Event Time Altitude Azimuth Distance (km) Brightness Sun altitude
Rises 17:54:16 0° 171° (S) 3,687 7.1 -9.6°
Reaches altitude 10° 17:56:49 10° 166° (SSE) 2,749 6.4 -10.1°
Maximum altitude 18:02:56 54° 91° (E) 1,203 4.2 -11.1°
Drops below altitude 10° 18:09:08 10° 17° (NNE) 2,788 6.1 -12.2°
Sets 18:11:44 0° 13° (NNE) 3,744 6.8 -12.7°
